Coffeyville, KS

7:11 PM CDT on September 20, 2017 (GMT -0500)
Coffeyville Municipal

Weather History for KCFV - November, 2011

Change the Weather History Date:

Monday, November 7, 2011

  Actual Average Record
Temperature  
Mean Temperature 62 °F -  
Max Temperature 66 °F 57 °F 84 °F (2005)
Min Temperature 57 °F 38 °F 27 °F (2003)
Degree Days  
Heating Degree Days 4    
Growing Degree Days 12 (Base 50)    
Moisture  
Dew Point 59 °F    
Average Humidity 90    
Maximum Humidity 94    
Minimum Humidity 79    
Precipitation  
Precipitation 1.59 in - - ()
Sea Level Pressure  
Sea Level Pressure 29.98 in    
Wind  
Wind Speed 7 mph (SE)    
Max Wind Speed 28 mph    
Max Gust Speed 44 mph    
Visibility 6 miles    
Events Rain , Thunderstorm    
Averages and records for this station are not official NWS values.
T = Trace of Precipitation, MM = Missing Value Source: NWS Daily Summary

Daily Weather History Graph

Daily Weather History Graph

Search for Another Location

Airport or City:

Trip Planner

Search our weather history database for the weather conditions in past years. The results will help you decide how hot, cold, wet, or windy it might be!

Date:

Astronomy

Nov. 07, 2011 Rise Set
Actual Time 6:52 AM CST 5:18 PM CST
Civil Twilight 6:25 AM CST 5:46 PM CST
Nautical Twilight 5:54 AM CST 6:17 PM CST
Astronomical Twilight 5:23 AM CST 6:47 PM CST
Moon 3:28 PM CST (11/7) 3:58 AM CST (11/7)
Length of Visible Light 11h 21m
Length of Day
10h 26m
Waxing Gibbous, 92% of the Moon is Illuminated
Nov 7
Waxing Gibbous
Nov 10
Full
Nov 18
Last Quarter
Nov 25
New
Dec 2
First Quarter

Hourly Weather History & Observations

Time (CST) Temp. Dew Point Humidity Pressure Visibility Wind Dir Wind Speed Gust Speed Precip Events Conditions
12:47 AM 62.6 °F 59.0 °F 88% 30.02 in 6.0 mi SE 4.6 mph - N/A   Mostly Cloudy
12:52 AM 61.0 °F 59.0 °F 93% 30.01 in 6.0 mi SSE 5.8 mph - N/A   Mostly Cloudy
1:07 AM 62.6 °F 59.0 °F 88% 30.03 in 7.0 mi SSE 4.6 mph - N/A   Mostly Cloudy
1:52 AM 63.0 °F 60.1 °F 90% 30.02 in 6.0 mi SSE 8.1 mph - N/A   Overcast
2:52 AM 61.0 °F 59.0 °F 93% 30.02 in 5.0 mi SE 4.6 mph - N/A   Mostly Cloudy
3:08 AM 60.8 °F 59.0 °F 94% 30.03 in 5.0 mi ESE 3.5 mph - N/A   Mostly Cloudy
3:35 AM 60.8 °F 59.0 °F 94% 30.03 in 4.0 mi East 3.5 mph - N/A   Mostly Cloudy
4:05 AM 60.8 °F 59.0 °F 94% 30.03 in 5.0 mi SSE 3.5 mph - N/A   Overcast
4:25 AM 60.8 °F 59.0 °F 94% 30.03 in 6.0 mi SSE 3.5 mph - N/A   Mostly Cloudy
4:52 AM 62.1 °F 59.0 °F 90% 30.03 in 6.0 mi SE 4.6 mph - N/A   Overcast
5:52 AM 62.1 °F 59.0 °F 90% 30.04 in 5.0 mi SE 4.6 mph - N/A   Overcast
6:52 AM 61.0 °F 59.0 °F 93% 30.04 in 5.0 mi East 4.6 mph - N/A   Overcast
7:41 AM 62.6 °F 60.8 °F 94% 30.06 in 4.0 mi Calm Calm - N/A   Overcast
7:52 AM 62.1 °F 60.1 °F 93% 30.05 in 5.0 mi ESE 3.5 mph - N/A   Overcast
8:29 AM 64.4 °F 60.8 °F 88% 30.06 in 8.0 mi SSE 8.1 mph - N/A   Overcast
8:39 AM 64.4 °F 60.8 °F 88% 30.06 in 9.0 mi SSE 9.2 mph - N/A   Overcast
9:36 AM 64.4 °F 60.8 °F 88% 30.06 in 10.0 mi SSE 9.2 mph - 0.00 in Rain Light Rain
10:03 AM 62.6 °F 60.8 °F 94% 30.07 in 2.5 mi SSE 12.7 mph - 0.03 in Rain Rain
10:27 AM 62.6 °F 60.8 °F 94% 30.05 in 3.0 mi SE 9.2 mph - 0.10 in Rain Rain
10:38 AM 62.6 °F 60.8 °F 94% 30.05 in 4.0 mi SSE 13.8 mph - 0.12 in Rain , Thunderstorm Light Rain
10:52 AM 62.1 °F 60.1 °F 93% 30.04 in 3.0 mi SE 15.0 mph - 0.16 in Rain , Thunderstorm Rain
11:02 AM 62.6 °F 60.8 °F 94% 30.06 in 3.0 mi SSE 12.7 mph - 0.04 in Rain Rain
11:47 AM 62.6 °F 59.0 °F 88% 30.04 in 10.0 mi SE 10.4 mph - 0.09 in   Overcast
11:52 AM 63.0 °F 59.0 °F 87% 30.03 in 10.0 mi ESE 9.2 mph - 0.09 in   Overcast
12:36 PM 62.6 °F 59.0 °F 88% 30.00 in 5.0 mi SE 15.0 mph 23.0 mph 0.03 in Rain Rain
12:52 PM 62.1 °F 59.0 °F 90% 29.99 in 2.0 mi ESE 9.2 mph 18.4 mph 0.09 in Rain , Thunderstorm Heavy Rain
1:01 PM 60.8 °F 59.0 °F 94% 29.99 in 1.5 mi SE 12.7 mph - 0.07 in Rain , Thunderstorm Heavy Thunderstorms and Rain
1:24 PM 62.6 °F 60.8 °F 94% 29.98 in 4.0 mi ESE 6.9 mph - 0.35 in Rain , Thunderstorm Light Rain
1:49 PM 62.6 °F 60.8 °F 94% 29.97 in 10.0 mi ESE 8.1 mph - 0.35 in   Overcast
1:52 PM 62.1 °F 60.1 °F 93% 29.96 in 10.0 mi ESE 6.9 mph - 0.35 in   Overcast
2:52 PM 63.0 °F 60.1 °F 90% 29.92 in 10.0 mi ESE 6.9 mph - 0.00 in   Overcast
3:52 PM 66.0 °F 62.1 °F 87% 29.89 in 8.0 mi SSE 15.0 mph 21.9 mph N/A   Overcast
5:52 PM 66.0 °F 61.0 °F 84% 29.91 in 10.0 mi SSE 8.1 mph - N/A   Overcast
6:52 PM 66.0 °F 61.0 °F 84% 29.90 in 10.0 mi SSE 13.8 mph - N/A   Overcast
7:28 PM 66.2 °F 60.8 °F 83% 29.89 in 10.0 mi SSE 15.0 mph 21.9 mph N/A Thunderstorm Mostly Cloudy
7:36 PM 66.2 °F 60.8 °F 83% 29.89 in 10.0 mi SSE 13.8 mph - N/A Thunderstorm Thunderstorm
7:52 PM 66.9 °F 60.1 °F 79% 29.90 in 10.0 mi South 9.2 mph - N/A Thunderstorm Thunderstorm
8:07 PM 66.2 °F 60.8 °F 83% 29.91 in 10.0 mi NW 6.9 mph - N/A Thunderstorm Overcast
8:49 PM 60.8 °F 55.4 °F 82% 29.90 in 10.0 mi NNW 9.2 mph - N/A   Overcast
8:52 PM 61.0 °F 55.9 °F 83% 29.90 in 10.0 mi NNW 6.9 mph - N/A Thunderstorm Overcast
10:01 PM 60.8 °F 57.2 °F 88% 29.87 in 10.0 mi NNE 13.8 mph - 0.01 in Rain , Thunderstorm Light Rain
10:52 PM 60.1 °F 57.9 °F 93% 29.87 in 3.0 mi NW 10.4 mph - 0.25 in Rain , Thunderstorm Heavy Thunderstorms and Rain
10:58 PM 60.8 °F 57.2 °F 88% 29.90 in 0.8 mi West 27.6 mph 43.7 mph 0.32 in Rain , Thunderstorm Heavy Thunderstorms and Rain
11:08 PM 59.0 °F 57.2 °F 94% 29.87 in 1.0 mi NW 13.8 mph 21.9 mph 0.50 in Rain , Thunderstorm Heavy Thunderstorms and Rain
11:12 PM 59.0 °F 55.4 °F 88% 29.88 in 3.0 mi NNW 9.2 mph 21.9 mph 0.52 in Rain , Thunderstorm Thunderstorms and Rain
11:50 PM 57.2 °F 55.4 °F 94% 29.89 in 5.0 mi East 3.5 mph - 0.65 in Rain , Thunderstorm Heavy Rain
11:52 PM 57.9 °F 55.9 °F 93% 29.89 in 5.0 mi East 3.5 mph - 0.65 in Rain , Thunderstorm Heavy Rain